Regional Weather Roundup
Issued by NWS

Home | Current Version | Previous Version | Text Only | Print | Product List | Glossary On
Versions: 1 2 3 4 5 6 7 8 9 10 11 12 13 14 15 16 17 18 19 20 21 22 23 24 25
000
ASUS44 KBMX 180510
RWRAL

ALABAMA REGIONAL WEATHER ROUNDUP
NATIONAL WEATHER SERVICE BIRMINGHAM AL
1100 PM CST SAT FEB 17 2018

NOTE: "FAIR" INDICATES FEW OR NO CLOUDS BELOW 12,000 FEET
WITH NO SIGNIFICANT WEATHER AND/OR OBSTRUCTIONS TO VISIBILITY.

THE REMARK "TC" DENOTES TEMPERATURE IN DEGREES CELSIUS.

ALZ001>011-014-016>018-020-180600-
NORTH ALABAMA

CITY           SKY/WX    TMP DP  RH WIND       PRES   REMARKS
MUSCLE SHOALS  CLOUDY    48  43  82 N7        30.25R
HUNTSVILLE     CLOUDY    49  46  90 N10       30.22R
DECATUR        CLOUDY    47  45  93 N12       30.24R
HALEYVILLE     CLOUDY    45  45 100 N7        30.24S
GADSDEN        CLOUDY    51  50  96 NW8       30.21R
$$

ALZ012-013-022-023-030>036-040>044-180600-
WEST CENTRAL ALABAMA

CITY           SKY/WX    TMP DP  RH WIND       PRES   REMARKS
TUSCALOOSA     CLOUDY    53  52  96 N10       30.22R
DEMOPOLIS        N/A     55  53  92 NW7       30.20R
$$

ALZ015-024>026-033>036-041>044-180600-
CENTRAL ALABAMA

CITY           SKY/WX    TMP DP  RH WIND       PRES   REMARKS
BIRMINGHAM     CLOUDY    52  51  97 N9        30.21S
MONTGOMERY     CLOUDY    66  59  78 NW10      30.16R
SHELBY CO ARPT CLOUDY    55  54  96 N6        30.18S
MAXWELL AFB    CLOUDY    65  59  81 NW6       30.15R
GREENVILLE     CLOUDY    68  59  73 NW7       30.14R
SELMA          CLOUDY    63  57  82 NW7       30.17S
PRATTVILLE     CLOUDY    64  59  85 NW5       30.16R
BESSEMER       LGT RAIN  52  52 100 N9        30.19S
TALLADEGA      LGT RAIN  55  54  95 N9        30.18R
PELL CITY      CLOUDY    54  54 100 N6G14     30.20R
MARION         DRIZZLE   56  56 100 N3        30.17S
SYLACAUGA      LGT RAIN  60  60 100 NW3       30.18S
$$

ALZ019-021-028-029-037-038-045>048-180600-
EAST CENTRAL ALABAMA

CITY           SKY/WX    TMP DP  RH WIND       PRES   REMARKS
ANNISTON       LGT RAIN  55  52  89 N7        30.17S
ALEXANDER CITY DRIZZLE   61  61 100 NW3       30.16S
AUBURN         LGT RAIN  64  61  88 NW9       30.16R
$$

ALZ051>064-180600-
SOUTHWEST ALABAMA

CITY           SKY/WX    TMP DP  RH WIND       PRES   REMARKS
MOBILE         FAIR      65  64  97 SW5       30.15F
BROOKLEY FIELD FAIR      61  61 100 CALM      30.16S
EVERGREEN      CLOUDY    67  62  84 SW7       30.15S
$$

ALZ049-050-065>069-180600-
SOUTHEAST ALABAMA

CITY           SKY/WX    TMP DP  RH WIND       PRES   REMARKS
DOTHAN         FAIR      66  66 100 SW6       30.18S
OZARK          FAIR      63  63  99 SW5       30.15S
TROY           FAIR      64  60  87 SW5       30.15R
EUFAULA          N/A    N/A N/A N/A SW5         N/A  VSB 1/8
$$




USA.gov is the U.S. government's official web portal to all federal, state and local government web resources and services.